Lid_Strength_Index
8 8 9 9 9 9 10 9 11 10 10 8 7 6 6 5 6 6 5 4 4 3 3 2 2 2 1 1 1 0 1 1 1 0 0 -0 0 1 0 -0 -0 -0 1 1
10 8 8 9 8 8 9 9 9 8 9 6 5 5 6 6 6 6 6 5 4 4 3 2 2 2 2 1 1 1 1 1 1 0 0 0 0 0 0 0 0 0 0 1
12 9 9 12 9 9 9 8 8 10 8 6 7 7 6 6 6 6 6 5 5 4 3 2 2 1 2 1 1 1 1 1 1 0 1 0 0 0 0 0 -0 0 -0 -0
13 11 17 10 7 7 8 8 7 7 6 6 6 5 5 4 5 4 5 5 4 4 3 2 1 1 1 1 1 1 1 1 1 1 1 0 0 0 0 0 0 0 0 -0
16 15 11 11 9 8 9 9 7 7 6 6 5 5 5 4 4 4 4 3 3 3 3 2 2 1 1 1 1 1 1 1 1 1 1 1 1 0 0 0 0 0 -0 0
14 16 16 9 8 7 6 11 7 6 6 6 6 8 6 4 3 3 3 3 3 3 3 2 2 1 1 2 1 2 1 1 0 1 1 1 0 0 1 0 0 1 1 0
13 15 12 8 7 6 12 10 6 6 6 6 7 6 4 3 3 3 3 3 3 3 3 3 1 1 2 2 2 1 1 0 0 0 0 0 0 0 1 1 1 1 2 1
13 14 15 7 7 10 7 6 6 6 5 6 5 4 4 3 3 3 3 3 3 4 3 2 2 2 2 2 1 1 1 1 1 0 1 0 0 0 0 1 1 1 1 2
10 10 7 6 6 5 5 5 5 5 5 5 5 4 4 4 3 3 3 3 3 3 3 3 2 2 2 2 1 1 1 1 1 1 0 1 1 1 1 1 1 1 2 2
9 7 7 6 5 5 4 5 5 4 4 4 5 4 4 4 3 3 3 3 3 3 4 3 3 2 2 1 1 1 1 1 1 1 1 0 1 0 1 1 1 2 2 2
8 7 7 6 5 5 4 4 4 4 4 4 4 4 4 4 3 3 3 2 3 3 3 3 3 3 2 1 1 1 1 1 1 1 1 1 1 1 1 0 1 1 1 1
10 6 6 6 5 4 5 5 4 4 4 4 3 4 3 3 3 3 3 2 2 3 3 3 3 3 2 2 1 1 2 2 1 1 1 1 1 1 6 7 8 8 8 3
8 6 6 5 4 4 4 4 4 4 3 4 3 3 3 3 3 3 2 2 2 3 3 3 3 3 2 2 1 1 2 1 1 2 1 1 1 1 2 3 9 10 10 9
5 5 7 5 5 4 4 4 4 3 3 3 3 3 3 3 3 3 3 2 2 2 2 3 3 3 2 2 2 1 1 6 1 1 1 1 1 1 1 1 2 1 10 9
5 5 5 4 4 4 3 4 4 4 4 4 3 3 3 3 3 3 2 2 2 2 2 3 3 3 2 3 3 2 2 2 2 1 1 1 1 1 1 1 1 1 3 7
5 5 5 5 5 4 4 4 4 4 4 4 3 3 3 3 3 2 2 2 3 3 2 2 3 3 3 2 2 2 2 6 5 2 1 1 1 1 1 1 1 1 1 2
7 7 6 6 5 5 5 4 4 4 4 4 3 3 3 3 3 3 2 2 2 2 2 2 2 2 3 2 2 2 2 2 7 2 2 2 1 1 1 1 1 2 1 4
5 5 4 4 5 5 5 4 4 4 4 3 3 3 3 4 4 3 3 2 2 2 2 2 1 1 2 2 1 2 2 2 3 2 2 2 2 1 1 2 2 3 4 7
5 5 4 4 4 4 5 4 4 4 3 3 3 4 3 3 3 3 3 3 3 3 3 2 8 5 3 3 4 2 2 2 3 3 2 6 2 2 2 3 4 5 5 5
6 6 6 6 6 5 4 3 3 3 3 3 3 3 4 4 4 4 4 5 5 4 3 2 2 2 2 5 8 3 2 3 2 3 3 3 4 4 5 7 5 5 4 5
5 5 6 6 7 6 4 3 3 4 3 3 3 3 3 3 3 3 3 4 5 6 5 6 2 3 3 4 4 2 2 2 3 3 4 4 5 4 5 5 5 6 7 9
6 6 6 6 5 5 4 3 3 3 3 3 3 3 3 4 4 5 5 4 4 14 4 3 4 10 5 10 2 3 3 3 4 4 4 4 5 6 6 8 9 9 11 11
6 6 6 5 5 5 4 4 3 3 3 3 3 3 3 3 2 3 4 5 4 8 3 4 12 14 13 2 2 2 3 3 3 4 5 6 6 7 8 9 10 11 10 10
6 5 6 5 5 5 6 5 4 4 3 2 2 2 2 3 4 5 6 11 14 9 5 6 10 13 9 2 2 3 3 4 5 5 6 9 7 7 9 10 10 10 10 9
5 5 5 5 5 5 5 5 5 5 4 4 3 3 4 3 3 4 5 6 12 7 6 14 14 13 5 4 5 4 5 5 6 6 7 7 7 8 8 9 9 9 9 9
5 6 6 5 5 5 5 4 5 5 5 5 5 4 4 4 5 4 5 7 5 8 5 5 6 6 5 5 6 6 7 8 7 7 7 7 8 9 9 9 9 8 8 8
4 6 4 5 5 5 5 6 5 5 6 5 5 6 4 4 6 5 8 5 5 5 7 7 8 9 7 7 8 8 8 8 9 9 8 7 8 8 8 8 8 8 8 8